Change the Weather History Date:

Thursday, June 5, 2014

  Actual Average (KCKC) Record (KCKC)
Temperature  
Mean Temperature 48 °F -  
Max Temperature 60 °F 63 °F 75 °F (2003)
Min Temperature 42 °F 42 °F 33 °F (2001)
Degree Days  
Heating Degree Days 17    
Moisture  
Dew Point 39 °F    
Average Humidity 71    
Maximum Humidity 90    
Minimum Humidity 53    
Precipitation  
Precipitation 0.03 in - - ()
Sea Level Pressure  
Sea Level Pressure 29.93 in    
Wind  
Wind Speed 5 mph (NE)    
Max Wind Speed 9 mph    
Max Gust Speed -    
Averages and records for this station are not official NWS values.
T = Trace of Precipitation, MM = Missing Value Source: NWS Daily Summary

Daily Weather History Graph

Daily Weather History Graph

Search for Another Location

Airport or City:

Trip Planner

Search our weather history database for the weather conditions in past years. The results will help you decide how hot, cold, wet, or windy it might be!

Date:

Astronomy

Jun. 05, 2014 Rise Set
Actual Time 5:04 AM CDT 8:55 PM CDT
Civil Twilight 4:24 AM CDT 9:35 PM CDT
Nautical Twilight 3:30 AM CDT 10:30 PM CDT
Astronomical Twilight 2:09 AM CDT 11:52 PM CDT
Moon 12:46 PM CDT (6/5) 1:00 AM CDT (6/5)
Length of Visible Light 17h 10m
Length of Day
15h 50m
Waxing Crescent, 49% of the Moon is Illuminated
Jun 5
Waxing Crescent
Jun 5
First Quarter
Jun 12
Full
Jun 19
Last Quarter
Jun 27
New

Hourly Weather History & Observations

Time (CDT) Temp. Windchill Dew Point Humidity Pressure Visibility Wind Dir Wind Speed Gust Speed Precip Events Conditions
12:56 AM 46.0 °F 44.8 °F 39.0 °F 76% 29.99 in - North 3.5 mph - N/A   Unknown
1:56 AM 45.0 °F 42.6 °F 39.9 °F 82% 29.97 in - NNW 4.6 mph - N/A   Unknown
2:56 AM 44.1 °F 42.5 °F 39.0 °F 82% 29.96 in - NNW 3.5 mph - N/A   Unknown
3:56 AM 44.1 °F 40.1 °F 37.9 °F 79% 29.97 in - NNW 6.9 mph - N/A   Unknown
4:56 AM 42.1 °F 39.2 °F 37.9 °F 85% 29.96 in - NNW 4.6 mph - N/A   Unknown
5:56 AM 42.1 °F - 37.9 °F 85% 29.98 in - Calm Calm - N/A   Unknown
6:56 AM 45.0 °F 43.5 °F 37.0 °F 74% 29.97 in - ENE 3.5 mph - N/A   Unknown
7:56 AM 50.0 °F - 36.0 °F 59% 29.96 in - ENE 4.6 mph - N/A   Unknown
8:56 AM 52.0 °F - 36.0 °F 54% 29.96 in - ENE 9.2 mph - N/A   Unknown
9:56 AM 48.0 °F - 37.0 °F 66% 29.96 in - ENE 9.2 mph - N/A   Unknown
10:56 AM 50.0 °F - 39.0 °F 66% 29.96 in - ENE 6.9 mph - N/A   Unknown
11:56 AM 51.1 °F - 37.0 °F 59% 29.93 in - ENE 6.9 mph - N/A   Unknown
12:56 PM 54.0 °F - 37.0 °F 53% 29.91 in - ENE 9.2 mph - N/A   Unknown
1:56 PM 51.1 °F - 37.9 °F 61% 29.91 in - ENE 9.2 mph - N/A   Unknown
2:56 PM 48.9 °F - 37.9 °F 66% 29.91 in - ENE 8.1 mph - N/A   Unknown
3:56 PM 48.9 °F - 39.0 °F 69% 29.90 in - ENE 8.1 mph - N/A   Unknown
4:56 PM 46.9 °F - 39.0 °F 74% 29.90 in - ENE 5.8 mph - N/A   Unknown
5:56 PM 48.0 °F - 37.9 °F 68% 29.88 in - ENE 5.8 mph - N/A   Unknown
6:56 PM 52.0 °F - 37.9 °F 59% 29.86 in - ENE 5.8 mph - N/A   Unknown
7:56 PM 48.9 °F - 37.9 °F 66% 29.86 in - ENE 6.9 mph - N/A   Unknown
8:56 PM 46.9 °F - 37.9 °F 71% 29.88 in - Calm Calm - N/A   Unknown
9:56 PM 48.9 °F - 46.0 °F 90% 29.89 in - North 4.6 mph - 0.02 in   Unknown
10:56 PM 48.0 °F - 43.0 °F 83% 29.88 in - ENE 3.5 mph - 0.01 in   Unknown
11:56 PM 46.0 °F 44.8 °F 41.0 °F 83% 29.87 in - NE 3.5 mph - N/A   Unknown